Location: Saratoga Springs
(43.0831°N, 73.7850°W)
Time: 09:21:57
(UTC-04:00)

Vanguard 1 Rocket - Pass Details

Date: 14 April 2024
Orbit: 650 x 4220 km, 34.3° (Epoch: 22 May)

Event Time Altitude Azimuth Distance (km) Brightness Sun altitude
Rises 03:45:59 0° 275° (W) 5,973 - -24.5°
Reaches altitude 10° 03:50:25 10° 263° (W) 5,464 - -23.9°
Exits shadow 04:03:04 26° 217° (SW) 5,369 10.7 -22.2°
Maximum altitude 04:03:23 26° 216° (SW) 5,389 10.7 -22.1°
Drops below altitude 10° 04:20:59 10° 171° (S) 7,380 11.8 -19.6°
Sets 04:28:48 0° 160° (SSE) 8,437 12.2 -18.4°
